Time,TemperatureF,DewpointF,PressureIn,WindDirection,WindDirectionDegrees,WindSpeedMPH,WindSpeedGustMPH,Humidity,HourlyPrecipIn,Conditions,Clouds,dailyrainin,SoftwareType,DateUTC
2013-09-03 00:01:00,68.4,60.6,29.95,WNW,293,1.6,2.5,76,0.00,,,0.00,WUHU216HW,2013-09-03 07:01:00,
2013-09-03 00:06:00,68.0,60.2,29.94,West,270,3.6,3.6,76,0.00,,,0.00,WUHU216HW,2013-09-03 07:06:00,
2013-09-03 00:11:00,67.7,60.2,29.95,WNW,293,3.4,3.6,77,0.00,,,0.00,WUHU216HW,2013-09-03 07:11:00,
2013-09-03 00:16:00,67.7,60.2,29.94,West,270,0.4,3.6,77,0.00,,,0.00,WUHU216HW,2013-09-03 07:16:00,
2013-09-03 00:21:00,67.7,60.2,29.95,WNW,293,0.4,3.4,77,0.00,,,0.00,WUHU216HW,2013-09-03 07:21:00,
2013-09-03 00:26:00,67.5,60.0,29.95,West,270,0.4,1.8,77,0.00,,,0.00,WUHU216HW,2013-09-03 07:26:00,
2013-09-03 00:31:00,67.5,60.0,29.94,WNW,293,0.4,1.3,77,0.00,,,0.00,WUHU216HW,2013-09-03 07:31:00,
2013-09-03 00:36:00,67.5,60.0,29.94,West,270,1.6,1.6,77,0.00,,,0.00,WUHU216HW,2013-09-03 07:36:00,
2013-09-03 00:41:00,67.5,60.0,29.95,West,270,0.7,1.6,77,0.00,,,0.00,WUHU216HW,2013-09-03 07:41:00,
2013-09-03 00:46:00,67.5,60.0,29.95,West,270,0.0,1.6,77,0.00,,,0.00,WUHU216HW,2013-09-03 07:46:00,
2013-09-03 00:51:00,67.5,60.0,29.95,West,270,0.4,0.4,77,0.00,,,0.00,WUHU216HW,2013-09-03 07:51:00,
2013-09-03 00:56:00,67.3,59.9,29.95,West,270,0.0,0.4,77,0.00,,,0.00,WUHU216HW,2013-09-03 07:56:00,
2013-09-03 01:01:00,67.5,60.0,29.95,NW,315,1.1,1.1,77,0.00,,,0.00,WUHU216HW,2013-09-03 08:01:00,
2013-09-03 01:06:00,67.3,59.9,29.95,NW,315,0.0,1.1,77,0.00,,,0.00,WUHU216HW,2013-09-03 08:06:00,
2013-09-03 01:11:00,67.1,59.7,29.95,WNW,293,1.1,1.1,77,0.00,,,0.00,WUHU216HW,2013-09-03 08:11:00,
2013-09-03 01:16:00,67.1,59.7,29.95,NW,315,0.4,1.1,77,0.00,,,0.00,WUHU216HW,2013-09-03 08:16:00,
2013-09-03 01:21:00,67.0,59.5,29.95,NW,315,0.0,1.1,77,0.00,,,0.00,WUHU216HW,2013-09-03 08:21:00,
2013-09-03 01:26:00,67.0,59.5,29.95,NW,315,0.7,0.7,77,0.00,,,0.00,WUHU216HW,2013-09-03 08:26:00,
2013-09-03 01:31:00,67.0,59.5,29.95,NW,315,0.7,0.7,77,0.00,,,0.00,WUHU216HW,2013-09-03 08:31:00,
2013-09-03 01:36:00,66.8,59.3,29.95,NW,315,0.0,0.7,77,0.00,,,0.00,WUHU216HW,2013-09-03 08:36:00,
2013-09-03 01:41:00,66.8,59.3,29.94,North,0,1.1,1.1,77,0.00,,,0.00,WUHU216HW,2013-09-03 08:41:00,
2013-09-03 01:46:00,66.6,59.1,29.95,North,0,0.4,1.1,77,0.00,,,0.00,WUHU216HW,2013-09-03 08:46:00,
2013-09-03 01:51:00,66.6,59.1,29.94,WNW,293,0.0,0.9,77,0.00,,,0.00,WUHU216HW,2013-09-03 08:51:00,
2013-09-03 01:56:00,66.6,59.1,29.94,WNW,293,0.0,0.4,77,0.00,,,0.00,WUHU216HW,2013-09-03 08:56:00,
2013-09-03 02:01:00,66.4,59.0,29.94,WNW,293,0.0,0.0,77,0.00,,,0.00,WUHU216HW,2013-09-03 09:01:00,
2013-09-03 02:06:00,66.2,58.8,29.94,WNW,293,0.0,0.0,77,0.00,,,0.00,WUHU216HW,2013-09-03 09:06:00,
2013-09-03 02:11:00,66.2,58.8,29.94,North,0,0.7,0.7,77,0.00,,,0.00,WUHU216HW,2013-09-03 09:11:00,
2013-09-03 02:16:00,66.2,58.8,29.94,East,90,0.7,0.7,77,0.00,,,0.00,WUHU216HW,2013-09-03 09:16:00,
2013-09-03 02:21:00,66.1,59.1,29.94,ENE,68,1.1,1.1,78,0.00,,,0.00,WUHU216HW,2013-09-03 09:21:00,
2013-09-03 02:26:00,65.9,58.9,29.94,ENE,68,0.7,1.1,78,0.00,,,0.00,WUHU216HW,2013-09-03 09:26:00,
2013-09-03 02:31:00,65.9,58.9,29.94,East,90,0.4,1.1,78,0.00,,,0.00,WUHU216HW,2013-09-03 09:31:00,
2013-09-03 02:36:00,65.9,58.9,29.94,East,90,0.0,0.7,78,0.00,,,0.00,WUHU216HW,2013-09-03 09:36:00,
2013-09-03 02:41:00,65.9,58.9,29.94,East,90,0.7,0.7,78,0.00,,,0.00,WUHU216HW,2013-09-03 09:41:00,
2013-09-03 02:46:00,65.7,58.7,29.94,East,90,0.0,1.1,78,0.00,,,0.00,WUHU216HW,2013-09-03 09:46:00,
2013-09-03 02:51:00,65.7,58.7,29.94,WNW,293,0.0,1.1,78,0.00,,,0.00,WUHU216HW,2013-09-03 09:51:00,
2013-09-03 02:56:00,65.7,58.7,29.94,WNW,293,0.0,0.2,78,0.00,,,0.00,WUHU216HW,2013-09-03 09:56:00,
2013-09-03 03:01:00,65.5,58.5,29.94,WNW,293,0.0,0.0,78,0.00,,,0.00,WUHU216HW,2013-09-03 10:01:00,
2013-09-03 03:06:00,65.5,58.5,29.94,WNW,293,0.2,0.4,78,0.00,,,0.00,WUHU216HW,2013-09-03 10:06:00,
2013-09-03 03:11:00,65.3,58.3,29.93,NW,315,0.0,0.4,78,0.00,,,0.00,WUHU216HW,2013-09-03 10:11:00,
2013-09-03 03:16:00,65.3,58.7,29.94,NW,315,0.0,0.2,79,0.00,,,0.00,WUHU216HW,2013-09-03 10:16:00,
2013-09-03 03:21:00,65.3,58.7,29.94,NW,315,0.0,0.0,79,0.00,,,0.00,WUHU216HW,2013-09-03 10:21:00,
2013-09-03 03:26:00,65.2,58.5,29.94,NW,315,0.0,0.0,79,0.00,,,0.00,WUHU216HW,2013-09-03 10:26:00,
2013-09-03 03:31:00,65.2,58.5,29.93,NW,315,0.0,0.0,79,0.00,,,0.00,WUHU216HW,2013-09-03 10:31:00,
2013-09-03 03:36:00,65.0,58.0,29.94,NW,315,0.0,0.0,78,0.00,,,0.00,WUHU216HW,2013-09-03 10:36:00,
2013-09-03 03:41:00,65.0,58.3,29.93,NW,315,0.0,0.0,79,0.00,,,0.00,WUHU216HW,2013-09-03 10:41:00,
2013-09-03 03:46:00,64.8,58.2,29.94,ENE,68,0.4,0.4,79,0.00,,,0.00,WUHU216HW,2013-09-03 10:46:00,
2013-09-03 03:51:00,64.8,58.2,29.94,SE,135,0.7,0.7,79,0.00,,,0.00,WUHU216HW,2013-09-03 10:51:00,
2013-09-03 03:56:00,64.8,58.2,29.93,SE,135,0.2,0.7,79,0.00,,,0.00,WUHU216HW,2013-09-03 10:56:00,
2013-09-03 04:01:00,64.8,58.2,29.94,SE,135,0.0,0.7,79,0.00,,,0.00,WUHU216HW,2013-09-03 11:01:00,
2013-09-03 04:06:00,64.8,58.2,29.94,SE,135,0.0,0.2,79,0.00,,,0.00,WUHU216HW,2013-09-03 11:06:00,
2013-09-03 04:11:00,64.8,58.5,29.94,SE,135,0.0,0.0,80,0.00,,,0.00,WUHU216HW,2013-09-03 11:11:00,
2013-09-03 04:16:00,64.8,58.5,29.94,SE,135,0.0,0.0,80,0.00,,,0.00,WUHU216HW,2013-09-03 11:16:00,
2013-09-03 04:21:00,64.8,58.5,29.94,SE,135,0.0,0.0,80,0.00,,,0.00,WUHU216HW,2013-09-03 11:21:00,
2013-09-03 04:26:00,64.8,58.5,29.94,SE,135,0.0,0.0,80,0.00,,,0.00,WUHU216HW,2013-09-03 11:26:00,
2013-09-03 04:31:00,64.8,58.5,29.94,SE,135,0.0,0.0,80,0.00,,,0.00,WUHU216HW,2013-09-03 11:31:00,
2013-09-03 04:36:00,64.8,58.5,29.94,SE,135,0.0,0.0,80,0.00,,,0.00,WUHU216HW,2013-09-03 11:36:00,
2013-09-03 04:41:00,64.8,58.5,29.94,SE,135,0.0,0.0,80,0.00,,,0.00,WUHU216HW,2013-09-03 11:41:00,
2013-09-03 04:46:00,64.8,58.5,29.94,SW,225,0.7,0.7,80,0.00,,,0.00,WUHU216HW,2013-09-03 11:46:00,
2013-09-03 04:51:00,64.8,58.5,29.94,WSW,248,1.6,2.7,80,0.00,,,0.00,WUHU216HW,2013-09-03 11:51:00,
2013-09-03 04:56:00,64.8,58.5,29.94,WSW,248,1.1,2.7,80,0.00,,,0.00,WUHU216HW,2013-09-03 11:56:00,
2013-09-03 05:01:00,64.8,58.5,29.94,WSW,248,0.4,1.6,80,0.00,,,0.00,WUHU216HW,2013-09-03 12:01:00,
2013-09-03 05:06:00,64.8,58.5,29.94,WSW,248,0.0,0.4,80,0.00,,,0.00,WUHU216HW,2013-09-03 12:06:00,
2013-09-03 05:11:00,64.8,58.5,29.94,WSW,248,0.0,0.4,80,0.00,,,0.00,WUHU216HW,2013-09-03 12:11:00,
2013-09-03 05:16:00,64.6,58.3,29.94,WSW,248,0.0,0.0,80,0.00,,,0.00,WUHU216HW,2013-09-03 12:16:00,
2013-09-03 05:21:00,64.6,58.3,29.94,NNW,338,0.0,0.7,80,0.00,,,0.00,WUHU216HW,2013-09-03 12:21:00,
2013-09-03 05:26:00,64.6,58.3,29.94,NNW,338,0.4,0.9,80,0.00,,,0.00,WUHU216HW,2013-09-03 12:26:00,
2013-09-03 05:31:00,64.4,58.1,29.94,NNW,338,0.0,0.9,80,0.00,,,0.00,WUHU216HW,2013-09-03 12:31:00,
2013-09-03 05:36:00,64.4,58.1,29.95,NNW,338,0.0,0.0,80,0.00,,,0.00,WUHU216HW,2013-09-03 12:36:00,
2013-09-03 05:41:00,64.4,58.1,29.95,NNW,338,0.9,0.9,80,0.00,,,0.00,WUHU216HW,2013-09-03 12:41:00,
2013-09-03 05:46:00,64.4,58.5,29.95,NNW,338,0.0,0.9,81,0.00,,,0.00,WUHU216HW,2013-09-03 12:46:00,
2013-09-03 05:51:00,64.4,58.5,29.95,NNW,338,0.0,0.9,81,0.00,,,0.00,WUHU216HW,2013-09-03 12:51:00,
2013-09-03 05:56:00,64.4,58.5,29.94,NNW,338,0.0,0.0,81,0.00,,,0.00,WUHU216HW,2013-09-03 12:56:00,
2013-09-03 06:01:00,64.4,58.5,29.95,NW,315,0.0,0.0,81,0.00,,,0.00,WUHU216HW,2013-09-03 13:01:00,
2013-09-03 06:06:00,64.4,58.5,29.95,SW,225,1.1,1.3,81,0.00,,,0.00,WUHU216HW,2013-09-03 13:06:00,
2013-09-03 06:11:00,64.4,58.5,29.95,WSW,248,1.8,1.8,81,0.00,,,0.00,WUHU216HW,2013-09-03 13:11:00,
2013-09-03 06:16:00,64.4,58.5,29.95,West,270,2.5,2.5,81,0.00,,,0.00,WUHU216HW,2013-09-03 13:16:00,
2013-09-03 06:21:00,64.4,58.5,29.95,SW,225,1.1,2.5,81,0.00,,,0.00,WUHU216HW,2013-09-03 13:21:00,
2013-09-03 06:26:00,64.4,58.5,29.95,WSW,248,0.7,1.8,81,0.00,,,0.00,WUHU216HW,2013-09-03 13:26:00,
2013-09-03 06:32:00,64.4,58.5,29.95,SW,225,2.5,2.5,81,0.00,,,0.00,WUHU216HW,2013-09-03 13:32:00,
2013-09-03 06:37:00,64.4,58.5,29.95,West,270,1.8,2.5,81,0.00,,,0.00,WUHU216HW,2013-09-03 13:37:00,
2013-09-03 06:42:00,64.4,58.5,29.95,WSW,248,1.1,2.5,81,0.00,,,0.00,WUHU216HW,2013-09-03 13:42:00,
2013-09-03 06:47:00,64.4,58.5,29.96,WSW,248,0.4,2.9,81,0.00,,,0.00,WUHU216HW,2013-09-03 13:47:00,
2013-09-03 06:52:00,64.4,58.5,29.96,West,270,0.7,2.9,81,0.00,,,0.00,WUHU216HW,2013-09-03 13:52:00,
2013-09-03 06:57:00,64.4,58.5,29.96,WSW,248,0.7,0.9,81,0.00,,,0.00,WUHU216HW,2013-09-03 13:57:00,
2013-09-03 07:02:00,64.4,58.5,29.96,SW,225,2.7,3.4,81,0.00,,,0.00,WUHU216HW,2013-09-03 14:02:00,
2013-09-03 07:07:00,64.4,58.1,29.96,West,270,1.1,3.4,80,0.00,,,0.00,WUHU216HW,2013-09-03 14:07:00,
2013-09-03 07:12:00,64.4,58.1,29.96,SW,225,2.0,3.1,80,0.00,,,0.00,WUHU216HW,2013-09-03 14:12:00,
2013-09-03 07:17:00,64.4,58.1,29.96,SW,225,1.1,3.1,80,0.00,,,0.00,WUHU216HW,2013-09-03 14:17:00,
2013-09-03 07:22:00,64.4,58.1,29.96,West,270,1.1,3.1,80,0.00,,,0.00,WUHU216HW,2013-09-03 14:22:00,
2013-09-03 07:27:00,64.4,58.1,29.96,WSW,248,0.9,2.5,80,0.00,,,0.00,WUHU216HW,2013-09-03 14:27:00,
2013-09-03 07:32:00,64.4,58.1,29.96,WSW,248,1.8,1.8,80,0.00,,,0.00,WUHU216HW,2013-09-03 14:32:00,
2013-09-03 07:37:00,64.4,58.1,29.97,WSW,248,0.7,1.8,80,0.00,,,0.00,WUHU216HW,2013-09-03 14:37:00,
2013-09-03 07:42:00,64.4,58.1,29.97,West,270,1.1,1.8,80,0.00,,,0.00,WUHU216HW,2013-09-03 14:42:00,
2013-09-03 07:47:00,64.4,58.1,29.97,NW,315,0.4,1.8,80,0.00,,,0.00,WUHU216HW,2013-09-03 14:47:00,
2013-09-03 07:52:00,64.4,58.1,29.97,SW,225,2.9,3.4,80,0.00,,,0.00,WUHU216HW,2013-09-03 14:52:00,
2013-09-03 07:57:00,64.4,58.1,29.97,WSW,248,1.3,3.4,80,0.00,,,0.00,WUHU216HW,2013-09-03 14:57:00,
2013-09-03 08:02:00,64.6,58.3,29.97,SW,225,1.1,2.9,80,0.00,,,0.00,WUHU216HW,2013-09-03 15:02:00,
2013-09-03 08:07:00,64.6,58.3,29.97,SW,225,1.3,1.3,80,0.00,,,0.00,WUHU216HW,2013-09-03 15:07:00,
2013-09-03 08:12:00,64.6,58.3,29.98,SW,225,3.1,3.1,80,0.00,,,0.00,WUHU216HW,2013-09-03 15:12:00,
2013-09-03 08:17:00,64.8,58.5,29.98,West,270,0.4,3.1,80,0.00,,,0.00,WUHU216HW,2013-09-03 15:17:00,
2013-09-03 08:22:00,64.8,58.5,29.98,WSW,248,0.7,3.1,80,0.00,,,0.00,WUHU216HW,2013-09-03 15:22:00,
2013-09-03 08:27:00,64.8,58.5,29.98,SW,225,1.8,1.8,80,0.00,,,0.00,WUHU216HW,2013-09-03 15:27:00,
2013-09-03 08:32:00,65.0,58.7,29.97,SSE,158,1.8,1.8,80,0.00,,,0.00,WUHU216HW,2013-09-03 15:32:00,
2013-09-03 08:37:00,65.2,58.9,29.98,West,270,1.8,1.8,80,0.00,,,0.00,WUHU216HW,2013-09-03 15:37:00,
2013-09-03 08:42:00,65.3,59.0,29.98,SW,225,3.1,3.1,80,0.00,,,0.00,WUHU216HW,2013-09-03 15:42:00,
2013-09-03 08:47:00,65.3,59.0,29.98,SSW,203,0.7,3.1,80,0.00,,,0.00,WUHU216HW,2013-09-03 15:47:00,
2013-09-03 08:52:00,65.3,58.7,29.98,WSW,248,1.1,3.1,79,0.00,,,0.00,WUHU216HW,2013-09-03 15:52:00,
2013-09-03 08:57:00,65.5,58.9,29.98,WSW,248,0.7,2.5,79,0.00,,,0.00,WUHU216HW,2013-09-03 15:57:00,
2013-09-03 09:02:00,65.5,58.9,29.98,SW,225,0.7,1.1,79,0.00,,,0.00,WUHU216HW,2013-09-03 16:02:00,
2013-09-03 09:07:00,65.7,59.1,29.98,SE,135,0.9,0.9,79,0.00,,,0.00,WUHU216HW,2013-09-03 16:07:00,
2013-09-03 09:12:00,65.9,59.2,29.98,SE,135,0.0,0.9,79,0.00,,,0.00,WUHU216HW,2013-09-03 16:12:00,
2013-09-03 09:17:00,66.2,59.2,29.98,SW,225,0.2,1.8,78,0.00,,,0.00,WUHU216HW,2013-09-03 16:17:00,
2013-09-03 09:22:00,66.4,59.4,29.98,West,270,1.6,2.7,78,0.00,,,0.00,WUHU216HW,2013-09-03 16:22:00,
2013-09-03 09:27:00,66.6,59.1,29.99,WSW,248,2.9,2.9,77,0.00,,,0.00,WUHU216HW,2013-09-03 16:27:00,
2013-09-03 09:32:00,66.6,59.1,29.99,SW,225,1.1,2.9,77,0.00,,,0.00,WUHU216HW,2013-09-03 16:32:00,
2013-09-03 09:37:00,67.1,59.7,29.99,SSW,203,1.1,2.9,77,0.00,,,0.00,WUHU216HW,2013-09-03 16:37:00,
2013-09-03 09:42:00,67.1,59.3,29.99,SE,135,4.0,4.0,76,0.00,,,0.00,WUHU216HW,2013-09-03 16:42:00,
2013-09-03 09:47:00,67.3,59.1,29.99,SSW,203,3.1,4.0,75,0.00,,,0.00,WUHU216HW,2013-09-03 16:47:00,
2013-09-03 09:52:00,67.7,59.5,29.99,West,270,2.2,3.1,75,0.00,,,0.00,WUHU216HW,2013-09-03 16:52:00,
2013-09-03 09:57:00,68.0,59.5,29.99,South,180,2.7,2.7,74,0.00,,,0.00,WUHU216HW,2013-09-03 16:57:00,
2013-09-03 10:02:00,68.6,59.9,29.99,South,180,2.5,2.7,74,0.00,,,0.00,WUHU216HW,2013-09-03 17:02:00,
2013-09-03 10:07:00,68.8,60.1,29.99,South,180,3.8,3.8,74,0.00,,,0.00,WUHU216HW,2013-09-03 17:07:00,
2013-09-03 10:12:00,69.3,60.2,29.99,SW,225,5.1,5.1,73,0.00,,,0.00,WUHU216HW,2013-09-03 17:12:00,
2013-09-03 10:17:00,69.5,60.0,29.99,West,270,1.6,5.1,72,0.00,,,0.00,WUHU216HW,2013-09-03 17:17:00,
2013-09-03 10:22:00,69.8,59.9,30.00,WSW,248,3.8,4.9,71,0.00,,,0.00,WUHU216HW,2013-09-03 17:22:00,
2013-09-03 10:27:00,70.0,60.1,30.00,SSW,203,1.8,4.9,71,0.00,,,0.00,WUHU216HW,2013-09-03 17:27:00,
2013-09-03 10:32:00,70.2,60.3,30.00,SSW,203,1.1,3.8,71,0.00,,,0.00,WUHU216HW,2013-09-03 17:32:00,
2013-09-03 10:37:00,70.7,60.5,30.00,SW,225,2.5,4.7,70,0.00,,,0.00,WUHU216HW,2013-09-03 17:37:00,
2013-09-03 10:42:00,70.9,60.2,30.00,SW,225,2.5,5.4,69,0.00,,,0.00,WUHU216HW,2013-09-03 17:42:00,
2013-09-03 10:47:00,71.1,60.4,30.00,WSW,248,1.1,5.4,69,0.00,,,0.00,WUHU216HW,2013-09-03 17:47:00,
2013-09-03 10:52:00,71.3,59.3,30.00,West,270,2.5,3.4,66,0.00,,,0.00,WUHU216HW,2013-09-03 17:52:00,
2013-09-03 10:57:00,71.3,59.3,30.00,NW,315,3.1,3.4,66,0.00,,,0.00,WUHU216HW,2013-09-03 17:57:00,
2013-09-03 11:02:00,71.3,58.9,30.01,West,270,6.0,6.0,65,0.00,,,0.00,WUHU216HW,2013-09-03 18:02:00,
2013-09-03 11:07:00,71.6,59.7,30.01,WNW,293,4.3,6.0,66,0.00,,,0.00,WUHU216HW,2013-09-03 18:07:00,
2013-09-03 11:12:00,71.6,58.8,30.01,SW,225,6.5,6.5,64,0.00,,,0.00,WUHU216HW,2013-09-03 18:12:00,
2013-09-03 11:17:00,72.0,59.1,30.00,WSW,248,3.4,6.9,64,0.00,,,0.00,WUHU216HW,2013-09-03 18:17:00,
2013-09-03 11:22:00,72.4,58.6,30.00,WSW,248,5.8,6.9,62,0.00,,,0.00,WUHU216HW,2013-09-03 18:22:00,
2013-09-03 11:27:00,72.4,58.6,30.00,West,270,2.2,5.8,62,0.00,,,0.00,WUHU216HW,2013-09-03 18:27:00,
2013-09-03 11:32:00,72.9,59.0,30.00,West,270,2.9,5.8,62,0.00,,,0.00,WUHU216HW,2013-09-03 18:32:00,
2013-09-03 11:37:00,73.1,59.2,30.00,SSW,203,6.3,6.3,62,0.00,,,0.00,WUHU216HW,2013-09-03 18:37:00,
2013-09-03 11:42:00,73.4,59.1,30.00,West,270,5.8,6.3,61,0.00,,,0.00,WUHU216HW,2013-09-03 18:42:00,
2013-09-03 11:47:00,73.8,59.0,30.00,WNW,293,1.8,6.3,60,0.00,,,0.00,WUHU216HW,2013-09-03 18:47:00,
2013-09-03 11:52:00,74.0,58.7,30.00,WNW,293,4.5,5.8,59,0.00,,,0.00,WUHU216HW,2013-09-03 18:52:00,
2013-09-03 11:57:00,74.2,57.9,30.00,NW,315,4.7,5.6,57,0.00,,,0.00,WUHU216HW,2013-09-03 18:57:00,
2013-09-03 12:02:00,74.3,58.6,30.00,SW,225,5.6,5.6,58,0.00,,,0.00,WUHU216HW,2013-09-03 19:02:00,
2013-09-03 12:07:00,74.7,58.4,30.00,West,270,2.5,5.6,57,0.00,,,0.00,WUHU216HW,2013-09-03 19:07:00,
2013-09-03 12:12:00,74.9,56.6,29.99,West,270,3.4,6.3,53,0.00,,,0.00,WUHU216HW,2013-09-03 19:12:00,
2013-09-03 12:17:00,75.1,56.3,29.99,WSW,248,6.9,8.7,52,0.00,,,0.00,WUHU216HW,2013-09-03 19:17:00,
2013-09-03 12:22:00,75.2,56.4,29.99,West,270,3.4,8.9,52,0.00,,,0.00,WUHU216HW,2013-09-03 19:22:00,
2013-09-03 12:27:00,75.2,57.0,29.99,West,270,5.4,8.9,53,0.00,,,0.00,WUHU216HW,2013-09-03 19:27:00,
2013-09-03 12:32:00,75.2,56.4,29.99,WSW,248,6.3,7.2,52,0.00,,,0.00,WUHU216HW,2013-09-03 19:32:00,
2013-09-03 12:37:00,75.6,56.8,29.99,WSW,248,3.4,6.7,52,0.00,,,0.00,WUHU216HW,2013-09-03 19:37:00,
2013-09-03 12:42:00,75.6,56.3,29.99,West,270,3.1,3.8,51,0.00,,,0.00,WUHU216HW,2013-09-03 19:42:00,
2013-09-03 12:47:00,75.6,56.3,29.99,West,270,4.0,4.0,51,0.00,,,0.00,WUHU216HW,2013-09-03 19:47:00,
2013-09-03 12:52:00,75.8,55.9,29.98,West,270,8.5,8.5,50,0.00,,,0.00,WUHU216HW,2013-09-03 19:52:00,
2013-09-03 12:57:00,76.0,56.1,29.98,West,270,4.7,8.9,50,0.00,,,0.00,WUHU216HW,2013-09-03 19:57:00,
2013-09-03 13:02:00,76.1,56.3,29.98,NW,315,4.0,8.9,50,0.00,,,0.00,WUHU216HW,2013-09-03 20:02:00,
2013-09-03 13:07:00,76.3,55.8,29.98,WSW,248,6.3,8.1,49,0.00,,,0.00,WUHU216HW,2013-09-03 20:07:00,
2013-09-03 13:12:00,76.5,54.7,29.98,WSW,248,5.8,8.1,47,0.00,,,0.00,WUHU216HW,2013-09-03 20:12:00,
2013-09-03 13:17:00,76.5,54.7,29.98,WNW,293,11.6,11.6,47,0.00,,,0.00,WUHU216HW,2013-09-03 20:17:00,
2013-09-03 13:22:00,76.5,56.0,29.98,WSW,248,4.9,11.6,49,0.00,,,0.00,WUHU216HW,2013-09-03 20:22:00,
2013-09-03 13:27:00,76.5,55.4,29.98,NW,315,9.2,9.2,48,0.00,,,0.00,WUHU216HW,2013-09-03 20:27:00,
2013-09-03 13:32:00,76.3,55.2,29.99,West,270,9.4,9.4,48,0.00,,,0.00,WUHU216HW,2013-09-03 20:32:00,
2013-09-03 13:37:00,76.3,56.4,29.98,WSW,248,8.5,9.4,50,0.00,,,0.00,WUHU216HW,2013-09-03 20:37:00,
2013-09-03 13:42:00,76.5,56.6,29.98,West,270,4.3,9.4,50,0.00,,,0.00,WUHU216HW,2013-09-03 20:42:00,
2013-09-03 13:47:00,76.7,55.5,29.98,NNW,338,13.9,13.9,48,0.00,,,0.00,WUHU216HW,2013-09-03 20:47:00,
2013-09-03 13:52:00,76.3,55.8,29.98,West,270,4.7,13.9,49,0.00,,,0.00,WUHU216HW,2013-09-03 20:52:00,
2013-09-03 13:57:00,76.3,56.4,29.98,West,270,8.7,9.6,50,0.00,,,0.00,WUHU216HW,2013-09-03 20:57:00,
2013-09-03 14:02:00,76.3,56.4,29.98,WNW,293,11.0,11.0,50,0.00,,,0.00,WUHU216HW,2013-09-03 21:02:00,
2013-09-03 14:07:00,76.3,56.4,29.98,West,270,11.0,11.0,50,0.00,,,0.00,WUHU216HW,2013-09-03 21:07:00,
2013-09-03 14:12:00,76.1,56.8,29.98,WSW,248,9.8,11.0,51,0.00,,,0.00,WUHU216HW,2013-09-03 21:12:00,
2013-09-03 14:17:00,76.1,56.8,29.98,NW,315,7.8,11.0,51,0.00,,,0.00,WUHU216HW,2013-09-03 21:17:00,
2013-09-03 14:22:00,76.1,56.8,29.98,West,270,11.2,11.2,51,0.00,,,0.00,WUHU216HW,2013-09-03 21:22:00,
2013-09-03 14:27:00,76.1,56.8,29.98,NW,315,7.8,11.2,51,0.00,,,0.00,WUHU216HW,2013-09-03 21:27:00,
2013-09-03 14:32:00,76.0,57.1,29.98,SW,225,8.5,11.2,52,0.00,,,0.00,WUHU216HW,2013-09-03 21:32:00,
2013-09-03 14:37:00,76.0,57.6,29.98,WNW,293,11.2,13.0,53,0.00,,,0.00,WUHU216HW,2013-09-03 21:37:00,
2013-09-03 14:42:00,76.0,57.1,29.98,North,0,6.7,13.0,52,0.00,,,0.00,WUHU216HW,2013-09-03 21:42:00,
2013-09-03 14:47:00,75.8,57.0,29.98,WNW,293,11.4,11.4,52,0.00,,,0.00,WUHU216HW,2013-09-03 21:47:00,
2013-09-03 14:52:00,76.3,58.0,29.98,WNW,293,7.8,11.4,53,0.00,,,0.00,WUHU216HW,2013-09-03 21:52:00,
2013-09-03 14:57:00,76.3,58.0,29.97,WSW,248,12.8,12.8,53,0.00,,,0.00,WUHU216HW,2013-09-03 21:57:00,
2013-09-03 15:02:00,76.3,58.0,29.97,West,270,11.2,12.8,53,0.00,,,0.00,WUHU216HW,2013-09-03 22:02:00,
2013-09-03 15:07:00,76.7,58.8,29.97,NNW,338,7.2,12.8,54,0.00,,,0.00,WUHU216HW,2013-09-03 22:07:00,
2013-09-03 15:12:00,76.7,58.2,29.97,WNW,293,9.2,9.8,53,0.00,,,0.00,WUHU216HW,2013-09-03 22:12:00,
2013-09-03 15:17:00,76.7,58.2,29.97,WNW,293,6.9,9.8,53,0.00,,,0.00,WUHU216HW,2013-09-03 22:17:00,
2013-09-03 15:22:00,76.7,58.2,29.97,NW,315,7.6,9.2,53,0.00,,,0.00,WUHU216HW,2013-09-03 22:22:00,
2013-09-03 15:27:00,76.7,58.2,29.96,West,270,9.2,11.6,53,0.00,,,0.00,WUHU216HW,2013-09-03 22:27:00,
2013-09-03 15:32:00,76.7,58.2,29.96,WSW,248,5.4,11.6,53,0.00,,,0.00,WUHU216HW,2013-09-03 22:32:00,
2013-09-03 15:37:00,76.7,58.8,29.96,NNW,338,7.6,10.3,54,0.00,,,0.00,WUHU216HW,2013-09-03 22:37:00,
2013-09-03 15:42:00,76.7,58.8,29.96,West,270,6.3,10.3,54,0.00,,,0.00,WUHU216HW,2013-09-03 22:42:00,
2013-09-03 15:47:00,76.7,59.2,29.95,NNW,338,9.8,11.4,55,0.00,,,0.00,WUHU216HW,2013-09-03 22:47:00,
2013-09-03 15:52:00,76.5,59.1,29.95,WNW,293,5.1,11.4,55,0.00,,,0.00,WUHU216HW,2013-09-03 22:52:00,
2013-09-03 15:57:00,76.7,59.2,29.95,NNW,338,8.1,9.8,55,0.00,,,0.00,WUHU216HW,2013-09-03 22:57:00,
2013-09-03 16:02:00,76.7,59.8,29.95,WNW,293,5.1,8.1,56,0.00,,,0.00,WUHU216HW,2013-09-03 23:02:00,
2013-09-03 16:07:00,76.7,59.8,29.95,WNW,293,6.9,12.8,56,0.00,,,0.00,WUHU216HW,2013-09-03 23:07:00,
2013-09-03 16:12:00,76.7,59.8,29.95,NW,315,8.1,12.8,56,0.00,,,0.00,WUHU216HW,2013-09-03 23:12:00,
2013-09-03 16:17:00,76.7,59.2,29.95,NNW,338,5.8,8.3,55,0.00,,,0.00,WUHU216HW,2013-09-03 23:17:00,
2013-09-03 16:22:00,76.7,59.2,29.95,WNW,293,8.5,8.5,55,0.00,,,0.00,WUHU216HW,2013-09-03 23:22:00,
2013-09-03 16:27:00,76.5,59.1,29.95,WNW,293,4.5,8.5,55,0.00,,,0.00,WUHU216HW,2013-09-03 23:27:00,
2013-09-03 16:32:00,76.5,59.6,29.95,West,270,7.6,8.5,56,0.00,,,0.00,WUHU216HW,2013-09-03 23:32:00,
2013-09-03 16:37:00,76.3,59.0,29.95,WNW,293,7.4,9.6,55,0.00,,,0.00,WUHU216HW,2013-09-03 23:37:00,
2013-09-03 16:42:00,76.1,59.3,29.95,WNW,293,6.7,9.6,56,0.00,,,0.00,WUHU216HW,2013-09-03 23:42:00,
2013-09-03 16:47:00,76.0,59.6,29.95,SW,225,4.7,9.8,57,0.00,,,0.00,WUHU216HW,2013-09-03 23:47:00,
2013-09-03 16:52:00,76.0,59.6,29.95,West,270,7.2,9.8,57,0.00,,,0.00,WUHU216HW,2013-09-03 23:52:00,
2013-09-03 16:57:00,75.8,59.5,29.95,West,270,9.8,9.8,57,0.00,,,0.00,WUHU216HW,2013-09-03 23:57:00,
2013-09-03 17:02:00,75.2,59.0,29.95,West,270,5.1,12.5,57,0.00,,,0.00,WUHU216HW,2013-09-04 00:02:00,
2013-09-03 17:07:00,75.4,59.7,29.95,SW,225,6.7,12.5,58,0.00,,,0.00,WUHU216HW,2013-09-04 00:07:00,
2013-09-03 17:12:00,75.4,59.7,29.95,SW,225,7.6,7.6,58,0.00,,,0.00,WUHU216HW,2013-09-04 00:12:00,
2013-09-03 17:17:00,75.4,59.7,29.95,WSW,248,6.9,8.5,58,0.00,,,0.00,WUHU216HW,2013-09-04 00:17:00,
2013-09-03 17:22:00,75.2,59.5,29.95,WSW,248,6.5,8.7,58,0.00,,,0.00,WUHU216HW,2013-09-04 00:22:00,
2013-09-03 17:27:00,75.2,59.5,29.95,West,270,4.9,8.7,58,0.00,,,0.00,WUHU216HW,2013-09-04 00:27:00,
2013-09-03 17:32:00,75.2,59.5,29.95,WNW,293,3.4,8.5,58,0.00,,,0.00,WUHU216HW,2013-09-04 00:32:00,
2013-09-03 17:37:00,75.1,59.8,29.95,West,270,8.1,8.1,59,0.00,,,0.00,WUHU216HW,2013-09-04 00:37:00,
2013-09-03 17:42:00,74.9,60.1,29.95,WNW,293,6.9,8.1,60,0.00,,,0.00,WUHU216HW,2013-09-04 00:42:00,
2013-09-03 17:47:00,74.5,59.8,29.95,West,270,6.0,8.3,60,0.00,,,0.00,WUHU216HW,2013-09-04 00:47:00,
2013-09-03 17:52:00,74.3,59.6,29.95,WSW,248,7.6,8.3,60,0.00,,,0.00,WUHU216HW,2013-09-04 00:52:00,
2013-09-03 17:57:00,74.3,59.6,29.95,SW,225,6.3,8.1,60,0.00,,,0.00,WUHU216HW,2013-09-04 00:57:00,
2013-09-03 18:02:00,74.2,59.4,29.95,SW,225,4.5,7.6,60,0.00,,,0.00,WUHU216HW,2013-09-04 01:02:00,
2013-09-03 18:07:00,74.2,59.9,29.95,West,270,4.3,6.3,61,0.00,,,0.00,WUHU216HW,2013-09-04 01:07:00,
2013-09-03 18:12:00,74.0,59.7,29.95,NNW,338,6.9,9.6,61,0.00,,,0.00,WUHU216HW,2013-09-04 01:12:00,
2013-09-03 18:17:00,73.8,60.0,29.95,WSW,248,4.7,9.6,62,0.00,,,0.00,WUHU216HW,2013-09-04 01:17:00,
2013-09-03 18:22:00,73.4,59.6,29.95,SW,225,6.5,8.3,62,0.00,,,0.00,WUHU216HW,2013-09-04 01:22:00,
2013-09-03 18:27:00,73.4,59.6,29.94,West,270,6.0,8.3,62,0.00,,,0.00,WUHU216HW,2013-09-04 01:27:00,
2013-09-03 18:32:00,73.3,59.4,29.94,WSW,248,7.4,7.4,62,0.00,,,0.00,WUHU216HW,2013-09-04 01:32:00,
2013-09-03 18:37:00,73.6,59.8,29.94,WNW,293,10.5,10.5,62,0.00,,,0.00,WUHU216HW,2013-09-04 01:37:00,
2013-09-03 18:42:00,73.4,59.6,29.94,WSW,248,2.2,10.5,62,0.00,,,0.00,WUHU216HW,2013-09-04 01:42:00,
2013-09-03 18:47:00,73.4,59.6,29.94,West,270,5.8,10.5,62,0.00,,,0.00,WUHU216HW,2013-09-04 01:47:00,
2013-09-03 18:52:00,73.4,59.6,29.94,WSW,248,4.7,5.8,62,0.00,,,0.00,WUHU216HW,2013-09-04 01:52:00,
2013-09-03 18:57:00,73.3,59.4,29.94,WNW,293,6.7,6.7,62,0.00,,,0.00,WUHU216HW,2013-09-04 01:57:00,
2013-09-03 19:02:00,72.7,59.4,29.94,WSW,248,5.1,6.7,63,0.00,,,0.00,WUHU216HW,2013-09-04 02:02:00,
2013-09-03 19:07:00,72.7,59.4,29.94,WSW,248,8.5,8.5,63,0.00,,,0.00,WUHU216HW,2013-09-04 02:07:00,
2013-09-03 19:12:00,72.4,60.0,29.94,WSW,248,4.3,8.5,65,0.00,,,0.00,WUHU216HW,2013-09-04 02:12:00,
2013-09-03 19:17:00,72.2,59.8,29.94,WSW,248,3.4,5.6,65,0.00,,,0.00,WUHU216HW,2013-09-04 02:17:00,
2013-09-03 19:22:00,72.2,59.8,29.95,NW,315,1.8,4.3,65,0.00,,,0.00,WUHU216HW,2013-09-04 02:22:00,
2013-09-03 19:27:00,72.2,59.8,29.95,SW,225,6.9,6.9,65,0.00,,,0.00,WUHU216HW,2013-09-04 02:27:00,
2013-09-03 19:32:00,72.0,60.0,29.95,SW,225,3.4,6.9,66,0.00,,,0.00,WUHU216HW,2013-09-04 02:32:00,
2013-09-03 19:37:00,71.8,59.9,29.95,WNW,293,4.7,6.9,66,0.00,,,0.00,WUHU216HW,2013-09-04 02:37:00,
2013-09-03 19:42:00,71.5,59.5,29.95,WNW,293,4.7,6.0,66,0.00,,,0.00,WUHU216HW,2013-09-04 02:42:00,
2013-09-03 19:47:00,71.1,59.6,29.95,WSW,248,7.6,7.6,67,0.00,,,0.00,WUHU216HW,2013-09-04 02:47:00,
2013-09-03 19:53:00,70.9,59.4,29.95,SW,225,2.9,7.6,67,0.00,,,0.00,WUHU216HW,2013-09-04 02:53:00,
2013-09-03 19:58:00,70.9,59.4,29.95,WSW,248,4.9,7.6,67,0.00,,,0.00,WUHU216HW,2013-09-04 02:58:00,
2013-09-03 20:03:00,70.9,59.4,29.95,SW,225,3.4,4.9,67,0.00,,,0.00,WUHU216HW,2013-09-04 03:03:00,
2013-09-03 20:08:00,70.9,59.9,29.95,SW,225,4.5,4.9,68,0.00,,,0.00,WUHU216HW,2013-09-04 03:08:00,
2013-09-03 20:13:00,70.9,59.9,29.95,WSW,248,2.7,4.5,68,0.00,,,0.00,WUHU216HW,2013-09-04 03:13:00,
2013-09-03 20:18:00,70.7,59.7,29.95,WSW,248,3.1,3.8,68,0.00,,,0.00,WUHU216HW,2013-09-04 03:18:00,
2013-09-03 20:23:00,70.6,59.9,29.96,West,270,2.2,4.3,69,0.00,,,0.00,WUHU216HW,2013-09-04 03:23:00,
2013-09-03 20:28:00,70.4,59.7,29.96,WSW,248,4.7,4.7,69,0.00,,,0.00,WUHU216HW,2013-09-04 03:28:00,
2013-09-03 20:33:00,70.2,59.5,29.96,WSW,248,4.5,4.7,69,0.00,,,0.00,WUHU216HW,2013-09-04 03:33:00,
2013-09-03 20:38:00,70.2,59.9,29.96,SW,225,2.0,4.5,70,0.00,,,0.00,WUHU216HW,2013-09-04 03:38:00,
2013-09-03 20:43:00,70.2,59.9,29.97,WSW,248,4.5,4.5,70,0.00,,,0.00,WUHU216HW,2013-09-04 03:43:00,
2013-09-03 20:48:00,70.2,59.9,29.97,WSW,248,2.5,4.5,70,0.00,,,0.00,WUHU216HW,2013-09-04 03:48:00,
2013-09-03 20:53:00,70.0,59.8,29.97,SW,225,1.8,4.0,70,0.00,,,0.00,WUHU216HW,2013-09-04 03:53:00,
2013-09-03 20:58:00,69.8,59.6,29.97,SW,225,2.5,3.1,70,0.00,,,0.00,WUHU216HW,2013-09-04 03:58:00,
2013-09-03 21:03:00,69.8,59.9,29.97,WNW,293,5.1,5.1,71,0.00,,,0.00,WUHU216HW,2013-09-04 04:03:00,
2013-09-03 21:08:00,69.8,59.9,29.97,WSW,248,4.3,5.1,71,0.00,,,0.00,WUHU216HW,2013-09-04 04:08:00,
2013-09-03 21:13:00,69.8,59.9,29.97,West,270,2.9,4.3,71,0.00,,,0.00,WUHU216HW,2013-09-04 04:13:00,
2013-09-03 21:18:00,69.8,59.9,29.98,SW,225,3.4,4.3,71,0.00,,,0.00,WUHU216HW,2013-09-04 04:18:00,
2013-09-03 21:23:00,69.7,59.8,29.98,WSW,248,2.9,4.7,71,0.00,,,0.00,WUHU216HW,2013-09-04 04:23:00,
2013-09-03 21:28:00,69.5,60.0,29.97,West,270,4.3,6.9,72,0.00,,,0.00,WUHU216HW,2013-09-04 04:28:00,
2013-09-03 21:33:00,69.3,59.9,29.98,SW,225,3.8,6.9,72,0.00,,,0.00,WUHU216HW,2013-09-04 04:33:00,
2013-09-03 21:38:00,69.1,60.0,29.97,WSW,248,2.0,4.7,73,0.00,,,0.00,WUHU216HW,2013-09-04 04:38:00,
2013-09-03 21:43:00,69.1,60.0,29.97,SW,225,2.5,5.1,73,0.00,,,0.00,WUHU216HW,2013-09-04 04:43:00,
2013-09-03 21:48:00,68.9,60.0,29.97,SW,225,3.6,5.1,73,0.00,,,0.00,WUHU216HW,2013-09-04 04:48:00,
2013-09-03 21:53:00,68.8,60.1,29.97,WSW,248,5.4,5.4,74,0.00,,,0.00,WUHU216HW,2013-09-04 04:53:00,
2013-09-03 21:58:00,68.8,60.1,29.98,SW,225,5.4,5.4,74,0.00,,,0.00,WUHU216HW,2013-09-04 04:58:00,
2013-09-03 22:03:00,68.6,59.9,29.98,SW,225,5.1,5.4,74,0.00,,,0.00,WUHU216HW,2013-09-04 05:03:00,
2013-09-03 22:08:00,68.6,59.9,29.97,SW,225,4.7,5.1,74,0.00,,,0.00,WUHU216HW,2013-09-04 05:08:00,
2013-09-03 22:13:00,68.6,59.9,29.97,West,270,2.5,5.1,74,0.00,,,0.00,WUHU216HW,2013-09-04 05:13:00,
2013-09-03 22:18:00,68.4,59.8,29.97,West,270,5.4,6.9,74,0.00,,,0.00,WUHU216HW,2013-09-04 05:18:00,
2013-09-03 22:23:00,68.4,59.8,29.98,WSW,248,2.9,6.9,74,0.00,,,0.00,WUHU216HW,2013-09-04 05:23:00,
2013-09-03 22:28:00,68.2,59.7,29.98,WSW,248,5.4,5.4,74,0.00,,,0.00,WUHU216HW,2013-09-04 05:28:00,
2013-09-03 22:33:00,68.2,59.7,29.98,WSW,248,3.8,5.4,74,0.00,,,0.00,WUHU216HW,2013-09-04 05:33:00,
2013-09-03 22:38:00,68.2,60.0,29.98,WSW,248,4.7,5.4,75,0.00,,,0.00,WUHU216HW,2013-09-04 05:38:00,
2013-09-03 22:43:00,68.4,60.2,29.98,WNW,293,3.6,4.7,75,0.00,,,0.00,WUHU216HW,2013-09-04 05:43:00,
2013-09-03 22:48:00,68.4,59.8,29.98,West,270,3.4,5.4,74,0.00,,,0.00,WUHU216HW,2013-09-04 05:48:00,
2013-09-03 22:53:00,68.4,59.8,29.98,West,270,2.9,5.4,74,0.00,,,0.00,WUHU216HW,2013-09-04 05:53:00,
2013-09-03 22:58:00,68.4,59.8,29.98,SW,225,4.3,4.3,74,0.00,,,0.00,WUHU216HW,2013-09-04 05:58:00,
2013-09-03 23:03:00,68.6,59.9,29.98,West,270,3.4,6.0,74,0.00,,,0.00,WUHU216HW,2013-09-04 06:03:00,
2013-09-03 23:08:00,68.6,59.9,29.98,WSW,248,4.9,6.0,74,0.00,,,0.00,WUHU216HW,2013-09-04 06:08:00,
2013-09-03 23:13:00,68.6,59.9,29.98,SW,225,3.8,4.9,74,0.00,,,0.00,WUHU216HW,2013-09-04 06:13:00,
2013-09-03 23:18:00,68.6,59.9,29.98,SW,225,6.9,6.9,74,0.00,,,0.00,WUHU216HW,2013-09-04 06:18:00,
2013-09-03 23:23:00,68.6,59.9,29.98,South,180,3.4,6.9,74,0.00,,,0.00,WUHU216HW,2013-09-04 06:23:00,
2013-09-03 23:28:00,68.4,59.8,29.98,WSW,248,4.9,6.9,74,0.00,,,0.00,WUHU216HW,2013-09-04 06:28:00,
2013-09-03 23:33:00,68.4,59.8,29.98,West,270,6.5,6.5,74,0.00,,,0.00,WUHU216HW,2013-09-04 06:33:00,
2013-09-03 23:38:00,68.4,59.8,29.98,West,270,2.7,6.5,74,0.00,,,0.00,WUHU216HW,2013-09-04 06:38:00,
2013-09-03 23:43:00,68.4,59.8,29.98,West,270,4.7,6.5,74,0.00,,,0.00,WUHU216HW,2013-09-04 06:43:00,
2013-09-03 23:48:00,68.2,59.7,29.98,WSW,248,4.0,4.7,74,0.00,,,0.00,WUHU216HW,2013-09-04 06:48:00,
2013-09-03 23:53:00,68.2,59.7,29.98,West,270,6.5,6.5,74,0.00,,,0.00,WUHU216HW,2013-09-04 06:53:00,
2013-09-03 23:58:00,68.2,59.7,29.98,WNW,293,3.4,6.5,74,0.00,,,0.00,WUHU216HW,2013-09-04 06:58:00,